Time,TemperatureF,DewpointF,PressureIn,WindDirection,WindDirectionDegrees,WindSpeedMPH,WindSpeedGustMPH,Humidity,HourlyPrecipIn,Conditions,Clouds,dailyrainin,SoftwareType,DateUTC
2013-07-15 00:00:00,73.1,70.0,30.27,NE,45,0.4,1.3,90,0.00,,,0.00,WUHU216HW,2013-07-15 04:00:00,
2013-07-15 00:01:00,73.1,70.0,30.27,ENE,68,0.9,1.3,90,0.00,,,0.00,WUHU216HW,2013-07-15 04:01:00,
2013-07-15 00:06:00,73.1,70.0,30.27,ENE,68,0.0,1.3,90,0.00,,,0.00,WUHU216HW,2013-07-15 04:06:00,
2013-07-15 00:11:00,73.1,70.0,30.27,NNE,23,0.0,1.1,90,0.00,,,0.00,WUHU216HW,2013-07-15 04:11:00,
2013-07-15 00:16:00,73.1,70.0,30.27,ESE,113,0.4,1.1,90,0.00,,,0.00,WUHU216HW,2013-07-15 04:16:00,
2013-07-15 00:21:00,73.1,70.0,30.27,ENE,68,1.8,1.8,90,0.00,,,0.00,WUHU216HW,2013-07-15 04:21:00,
2013-07-15 00:26:00,73.1,70.0,30.27,East,90,1.6,2.5,90,0.00,,,0.00,WUHU216HW,2013-07-15 04:26:00,
2013-07-15 00:31:00,73.1,70.0,30.27,ENE,68,0.0,2.5,90,0.00,,,0.00,WUHU216HW,2013-07-15 04:31:00,
2013-07-15 00:36:00,73.1,70.0,30.27,ENE,68,0.0,1.6,90,0.00,,,0.00,WUHU216HW,2013-07-15 04:36:00,
2013-07-15 00:41:00,72.9,69.8,30.27,ENE,68,0.4,1.6,90,0.00,,,0.00,WUHU216HW,2013-07-15 04:41:00,
2013-07-15 00:46:00,72.9,69.8,30.27,ENE,68,0.0,1.6,90,0.00,,,0.00,WUHU216HW,2013-07-15 04:46:00,
2013-07-15 00:51:00,72.9,69.8,30.27,ESE,113,0.0,1.8,90,0.00,,,0.00,WUHU216HW,2013-07-15 04:51:00,
2013-07-15 00:56:00,72.7,69.7,30.27,ESE,113,0.2,2.7,90,0.00,,,0.00,WUHU216HW,2013-07-15 04:56:00,
2013-07-15 01:01:00,72.7,69.7,30.27,ENE,68,0.4,3.4,90,0.00,,,0.00,WUHU216HW,2013-07-15 05:01:00,
2013-07-15 01:06:00,72.7,69.7,30.27,NNE,23,0.0,3.4,90,0.00,,,0.00,WUHU216HW,2013-07-15 05:06:00,
2013-07-15 01:11:00,72.7,69.7,30.27,NE,45,0.0,0.4,90,0.00,,,0.00,WUHU216HW,2013-07-15 05:11:00,
2013-07-15 01:16:00,72.5,69.5,30.27,ENE,68,0.0,0.7,90,0.00,,,0.00,WUHU216HW,2013-07-15 05:16:00,
2013-07-15 01:21:00,72.5,69.5,30.27,NE,45,0.0,0.7,90,0.00,,,0.00,WUHU216HW,2013-07-15 05:21:00,
2013-07-15 01:26:00,72.5,69.5,30.27,NNE,23,0.9,1.3,90,0.00,,,0.00,WUHU216HW,2013-07-15 05:26:00,
2013-07-15 01:31:00,72.4,69.3,30.27,ESE,113,1.8,1.8,90,0.00,,,0.00,WUHU216HW,2013-07-15 05:31:00,
2013-07-15 01:36:00,72.4,69.6,30.27,ENE,68,1.3,2.5,91,0.00,,,0.00,WUHU216HW,2013-07-15 05:36:00,
2013-07-15 01:41:00,72.4,69.6,30.27,ENE,68,1.1,2.5,91,0.00,,,0.00,WUHU216HW,2013-07-15 05:41:00,
2013-07-15 01:46:00,72.2,69.1,30.27,ESE,113,0.7,1.6,90,0.00,,,0.00,WUHU216HW,2013-07-15 05:46:00,
2013-07-15 01:51:00,72.2,69.4,30.27,ENE,68,0.4,2.5,91,0.00,,,0.00,WUHU216HW,2013-07-15 05:51:00,
2013-07-15 01:56:00,72.2,69.4,30.27,ENE,68,0.4,2.7,91,0.00,,,0.00,WUHU216HW,2013-07-15 05:56:00,
2013-07-15 02:01:00,72.2,69.4,30.27,NNE,23,1.8,2.9,91,0.00,,,0.00,WUHU216HW,2013-07-15 06:01:00,
2013-07-15 02:06:00,72.2,69.4,30.27,NNE,23,0.4,2.9,91,0.00,,,0.00,WUHU216HW,2013-07-15 06:06:00,
2013-07-15 02:11:00,72.2,69.4,30.27,ENE,68,0.2,1.8,91,0.00,,,0.00,WUHU216HW,2013-07-15 06:11:00,
2013-07-15 02:16:00,72.2,69.4,30.27,NE,45,0.7,2.0,91,0.00,,,0.00,WUHU216HW,2013-07-15 06:16:00,
2013-07-15 02:21:00,72.2,69.4,30.27,North,0,2.2,2.2,91,0.00,,,0.00,WUHU216HW,2013-07-15 06:21:00,
2013-07-15 02:26:00,72.2,69.4,30.27,East,90,0.4,2.2,91,0.00,,,0.00,WUHU216HW,2013-07-15 06:26:00,
2013-07-15 02:31:00,72.0,69.2,30.27,NE,45,0.9,2.5,91,0.00,,,0.00,WUHU216HW,2013-07-15 06:31:00,
2013-07-15 02:36:00,72.0,69.2,30.27,ENE,68,2.5,2.9,91,0.00,,,0.00,WUHU216HW,2013-07-15 06:36:00,
2013-07-15 02:41:00,72.0,69.2,30.26,NNE,23,0.0,2.9,91,0.00,,,0.00,WUHU216HW,2013-07-15 06:41:00,
2013-07-15 02:46:00,72.0,69.2,30.27,ESE,113,1.8,2.5,91,0.00,,,0.00,WUHU216HW,2013-07-15 06:46:00,
2013-07-15 02:51:00,72.0,69.2,30.27,North,0,0.4,1.8,91,0.00,,,0.00,WUHU216HW,2013-07-15 06:51:00,
2013-07-15 02:56:00,72.0,69.2,30.26,NNE,23,0.0,1.8,91,0.00,,,0.00,WUHU216HW,2013-07-15 06:56:00,
2013-07-15 03:01:00,72.0,69.2,30.26,ESE,113,0.2,1.8,91,0.00,,,0.00,WUHU216HW,2013-07-15 07:01:00,
2013-07-15 03:06:00,72.0,69.2,30.26,North,0,0.2,2.0,91,0.00,,,0.00,WUHU216HW,2013-07-15 07:06:00,
2013-07-15 03:11:00,72.0,69.2,30.26,East,90,1.1,3.4,91,0.00,,,0.00,WUHU216HW,2013-07-15 07:11:00,
2013-07-15 03:16:00,72.0,69.2,30.26,ENE,68,0.2,3.4,91,0.00,,,0.00,WUHU216HW,2013-07-15 07:16:00,
2013-07-15 03:21:00,72.0,69.6,30.26,ENE,68,0.2,2.0,92,0.00,,,0.00,WUHU216HW,2013-07-15 07:21:00,
2013-07-15 03:26:00,72.0,69.6,30.26,NNE,23,0.4,4.7,92,0.00,,,0.00,WUHU216HW,2013-07-15 07:26:00,
2013-07-15 03:31:00,72.0,69.6,30.26,ENE,68,0.4,4.7,92,0.00,,,0.00,WUHU216HW,2013-07-15 07:31:00,
2013-07-15 03:36:00,72.0,69.2,30.26,ENE,68,0.2,2.5,91,0.00,,,0.00,WUHU216HW,2013-07-15 07:36:00,
2013-07-15 03:41:00,72.2,69.8,30.26,ENE,68,0.7,1.6,92,0.00,,,0.00,WUHU216HW,2013-07-15 07:41:00,
2013-07-15 03:46:00,72.2,69.8,30.26,ESE,113,1.6,2.0,92,0.00,,,0.00,WUHU216HW,2013-07-15 07:46:00,
2013-07-15 03:51:00,72.2,69.8,30.26,ENE,68,0.4,2.5,92,0.00,,,0.00,WUHU216HW,2013-07-15 07:51:00,
2013-07-15 03:56:00,72.2,69.8,30.26,ENE,68,2.0,2.5,92,0.00,,,0.00,WUHU216HW,2013-07-15 07:56:00,
2013-07-15 04:01:00,72.2,69.8,30.26,North,0,0.0,2.0,92,0.00,,,0.00,WUHU216HW,2013-07-15 08:01:00,
2013-07-15 04:06:00,72.4,69.9,30.26,NNE,23,1.1,2.5,92,0.00,,,0.00,WUHU216HW,2013-07-15 08:06:00,
2013-07-15 04:11:00,72.4,69.9,30.26,ENE,68,1.1,2.5,92,0.00,,,0.00,WUHU216HW,2013-07-15 08:11:00,
2013-07-15 04:16:00,72.4,69.9,30.26,NE,45,0.0,2.5,92,0.00,,,0.00,WUHU216HW,2013-07-15 08:16:00,
2013-07-15 04:21:00,72.4,69.9,30.26,North,0,1.8,2.5,92,0.00,,,0.00,WUHU216HW,2013-07-15 08:21:00,
2013-07-15 04:26:00,72.4,69.9,30.26,North,0,0.4,2.5,92,0.00,,,0.00,WUHU216HW,2013-07-15 08:26:00,
2013-07-15 04:31:00,72.4,69.9,30.26,East,90,0.0,2.0,92,0.00,,,0.00,WUHU216HW,2013-07-15 08:31:00,
2013-07-15 04:36:00,72.4,69.9,30.27,East,90,0.7,2.2,92,0.00,,,0.00,WUHU216HW,2013-07-15 08:36:00,
2013-07-15 04:41:00,72.4,69.9,30.26,NNW,338,0.9,2.2,92,0.00,,,0.00,WUHU216HW,2013-07-15 08:41:00,
2013-07-15 04:46:00,72.4,69.9,30.27,ENE,68,0.0,2.0,92,0.00,,,0.00,WUHU216HW,2013-07-15 08:46:00,
2013-07-15 04:51:00,72.4,69.9,30.27,NE,45,0.4,1.8,92,0.00,,,0.00,WUHU216HW,2013-07-15 08:51:00,
2013-07-15 04:56:00,72.5,70.1,30.27,East,90,1.6,3.4,92,0.00,,,0.00,WUHU216HW,2013-07-15 08:56:00,
2013-07-15 05:01:00,72.5,70.1,30.27,East,90,0.9,4.5,92,0.00,,,0.00,WUHU216HW,2013-07-15 09:01:00,
2013-07-15 05:06:00,72.7,70.3,30.27,SE,135,2.2,4.5,92,0.00,,,0.00,WUHU216HW,2013-07-15 09:06:00,
2013-07-15 05:11:00,72.7,70.3,30.27,ENE,68,1.1,3.4,92,0.00,,,0.00,WUHU216HW,2013-07-15 09:11:00,
2013-07-15 05:16:00,72.7,70.3,30.27,NNE,23,0.4,3.4,92,0.00,,,0.00,WUHU216HW,2013-07-15 09:16:00,
2013-07-15 05:21:00,72.7,70.3,30.27,SSW,203,2.2,2.7,92,0.00,,,0.00,WUHU216HW,2013-07-15 09:21:00,
2013-07-15 05:26:00,72.7,70.3,30.27,East,90,3.8,4.0,92,0.00,,,0.00,WUHU216HW,2013-07-15 09:26:00,
2013-07-15 05:31:00,72.9,70.5,30.27,North,0,2.0,4.0,92,0.00,,,0.00,WUHU216HW,2013-07-15 09:31:00,
2013-07-15 05:36:00,73.1,70.9,30.27,ENE,68,1.3,5.8,93,0.00,,,0.00,WUHU216HW,2013-07-15 09:36:00,
2013-07-15 05:41:00,73.1,70.9,30.27,NE,45,6.3,6.3,93,0.00,,,0.00,WUHU216HW,2013-07-15 09:41:00,
2013-07-15 05:46:00,73.1,70.7,30.28,SSE,158,2.5,6.3,92,0.00,,,0.00,WUHU216HW,2013-07-15 09:46:00,
2013-07-15 05:51:00,73.1,70.7,30.28,East,90,0.9,6.3,92,0.00,,,0.00,WUHU216HW,2013-07-15 09:51:00,
2013-07-15 05:56:00,73.1,70.7,30.27,East,90,1.1,3.8,92,0.00,,,0.00,WUHU216HW,2013-07-15 09:56:00,
2013-07-15 06:01:00,73.3,70.8,30.27,NE,45,1.8,3.8,92,0.00,,,0.00,WUHU216HW,2013-07-15 10:01:00,
2013-07-15 06:06:00,73.3,70.8,30.27,NNE,23,2.9,4.5,92,0.00,,,0.00,WUHU216HW,2013-07-15 10:06:00,
2013-07-15 06:11:00,73.3,70.8,30.27,NE,45,2.2,4.5,92,0.00,,,0.00,WUHU216HW,2013-07-15 10:11:00,
2013-07-15 06:16:00,73.3,70.8,30.27,ENE,68,1.8,3.1,92,0.00,,,0.00,WUHU216HW,2013-07-15 10:16:00,
2013-07-15 06:21:00,73.3,70.8,30.27,East,90,2.5,3.1,92,0.00,,,0.00,WUHU216HW,2013-07-15 10:21:00,
2013-07-15 06:26:00,73.4,71.0,30.27,ENE,68,0.7,6.3,92,0.00,,,0.00,WUHU216HW,2013-07-15 10:26:00,
2013-07-15 06:31:00,73.4,71.3,30.27,ENE,68,0.7,6.3,93,0.00,,,0.00,WUHU216HW,2013-07-15 10:31:00,
2013-07-15 06:36:00,73.4,71.3,30.28,ESE,113,3.6,5.1,93,0.00,,,0.00,WUHU216HW,2013-07-15 10:36:00,
2013-07-15 06:41:00,73.4,71.3,30.28,East,90,2.7,5.1,93,0.00,,,0.00,WUHU216HW,2013-07-15 10:41:00,
2013-07-15 06:46:00,73.6,71.5,30.28,ENE,68,2.0,7.4,93,0.00,,,0.00,WUHU216HW,2013-07-15 10:46:00,
2013-07-15 06:51:00,73.6,71.5,30.28,East,90,0.7,7.4,93,0.00,,,0.00,WUHU216HW,2013-07-15 10:51:00,
2013-07-15 06:56:00,73.6,71.5,30.29,SE,135,2.5,7.2,93,0.00,,,0.00,WUHU216HW,2013-07-15 10:56:00,
2013-07-15 07:01:00,73.6,71.5,30.28,NE,45,1.8,7.2,93,0.00,,,0.00,WUHU216HW,2013-07-15 11:01:00,
2013-07-15 07:06:00,73.6,71.5,30.28,SE,135,1.1,5.1,93,0.00,,,0.00,WUHU216HW,2013-07-15 11:06:00,
2013-07-15 07:11:00,73.8,71.4,30.29,NE,45,3.4,5.6,92,0.00,,,0.00,WUHU216HW,2013-07-15 11:11:00,
2013-07-15 07:16:00,73.8,71.6,30.29,South,180,0.4,5.6,93,0.00,,,0.00,WUHU216HW,2013-07-15 11:16:00,
2013-07-15 07:21:00,73.8,71.4,30.29,East,90,1.1,4.7,92,0.00,,,0.00,WUHU216HW,2013-07-15 11:21:00,
2013-07-15 07:26:00,74.0,71.6,30.29,NE,45,2.2,2.7,92,0.00,,,0.00,WUHU216HW,2013-07-15 11:26:00,
2013-07-15 07:31:00,74.0,71.6,30.29,East,90,0.4,2.7,92,0.00,,,0.00,WUHU216HW,2013-07-15 11:31:00,
2013-07-15 07:36:00,74.0,71.6,30.29,East,90,0.4,5.4,92,0.00,,,0.00,WUHU216HW,2013-07-15 11:36:00,
2013-07-15 07:41:00,74.2,71.7,30.29,ESE,113,2.5,5.4,92,0.00,,,0.00,WUHU216HW,2013-07-15 11:41:00,
2013-07-15 07:46:00,74.2,71.7,30.29,NE,45,0.9,4.5,92,0.00,,,0.00,WUHU216HW,2013-07-15 11:46:00,
2013-07-15 07:51:00,74.3,71.9,30.29,SE,135,0.4,4.5,92,0.00,,,0.00,WUHU216HW,2013-07-15 11:51:00,
2013-07-15 07:56:00,74.5,72.1,30.29,NNW,338,0.0,3.6,92,0.00,,,0.00,WUHU216HW,2013-07-15 11:56:00,
2013-07-15 08:01:00,74.5,72.1,30.29,ESE,113,2.0,3.1,92,0.00,,,0.00,WUHU216HW,2013-07-15 12:01:00,
2013-07-15 08:06:00,74.7,72.3,30.29,NNE,23,2.0,4.7,92,0.00,,,0.00,WUHU216HW,2013-07-15 12:06:00,
2013-07-15 08:11:00,74.9,72.1,30.29,East,90,1.8,4.7,91,0.00,,,0.00,WUHU216HW,2013-07-15 12:11:00,
2013-07-15 08:16:00,74.9,72.1,30.30,ESE,113,1.6,4.3,91,0.00,,,0.00,WUHU216HW,2013-07-15 12:16:00,
2013-07-15 08:21:00,74.9,72.1,30.30,ENE,68,2.2,4.3,91,0.00,,,0.00,WUHU216HW,2013-07-15 12:21:00,
2013-07-15 08:26:00,75.1,72.3,30.30,SSE,158,1.1,4.5,91,0.00,,,0.00,WUHU216HW,2013-07-15 12:26:00,
2013-07-15 08:31:00,75.1,72.3,30.30,NE,45,2.0,4.5,91,0.00,,,0.00,WUHU216HW,2013-07-15 12:31:00,
2013-07-15 08:36:00,75.2,72.2,30.30,ESE,113,1.6,4.3,90,0.00,,,0.00,WUHU216HW,2013-07-15 12:36:00,
2013-07-15 08:41:00,75.6,72.5,30.30,SSE,158,1.3,4.3,90,0.00,,,0.00,WUHU216HW,2013-07-15 12:41:00,
2013-07-15 08:46:00,76.0,72.9,30.30,SE,135,0.4,3.6,90,0.00,,,0.00,WUHU216HW,2013-07-15 12:46:00,
2013-07-15 08:51:00,76.0,72.9,30.30,ENE,68,1.6,3.6,90,0.00,,,0.00,WUHU216HW,2013-07-15 12:51:00,
2013-07-15 08:56:00,76.0,72.5,30.30,ENE,68,1.3,4.7,89,0.00,,,0.00,WUHU216HW,2013-07-15 12:56:00,
2013-07-15 09:01:00,76.0,72.5,30.30,ENE,68,3.4,4.7,89,0.00,,,0.00,WUHU216HW,2013-07-15 13:01:00,
2013-07-15 09:06:00,76.1,72.7,30.30,East,90,2.5,3.4,89,0.00,,,0.00,WUHU216HW,2013-07-15 13:06:00,
2013-07-15 09:11:00,76.3,72.9,30.30,ENE,68,1.1,4.9,89,0.00,,,0.00,WUHU216HW,2013-07-15 13:11:00,
2013-07-15 09:16:00,76.7,73.3,30.30,SE,135,2.0,4.9,89,0.00,,,0.00,WUHU216HW,2013-07-15 13:16:00,
2013-07-15 09:21:00,77.0,73.3,30.30,NE,45,0.2,5.1,88,0.00,,,0.00,WUHU216HW,2013-07-15 13:21:00,
2013-07-15 09:26:00,77.4,73.3,30.30,ESE,113,2.2,5.1,87,0.00,,,0.00,WUHU216HW,2013-07-15 13:26:00,
2013-07-15 09:31:00,77.8,73.6,30.30,ENE,68,2.5,5.4,87,0.00,,,0.00,WUHU216HW,2013-07-15 13:31:00,
2013-07-15 09:36:00,78.3,74.2,30.30,ENE,68,1.6,5.4,87,0.00,,,0.00,WUHU216HW,2013-07-15 13:36:00,
2013-07-15 09:41:00,79.2,74.4,30.30,North,0,2.9,6.9,85,0.00,,,0.00,WUHU216HW,2013-07-15 13:41:00,
2013-07-15 09:46:00,79.7,74.5,30.29,North,0,3.4,6.9,84,0.00,,,0.00,WUHU216HW,2013-07-15 13:46:00,
2013-07-15 09:51:00,79.9,74.0,30.30,ENE,68,2.0,5.8,82,0.00,,,0.00,WUHU216HW,2013-07-15 13:51:00,
2013-07-15 09:56:00,79.6,73.3,30.29,East,90,4.0,5.8,81,0.00,,,0.00,WUHU216HW,2013-07-15 13:56:00,
2013-07-15 10:01:00,79.2,73.3,30.30,SE,135,1.8,4.5,82,0.00,,,0.00,WUHU216HW,2013-07-15 14:01:00,
2013-07-15 10:06:00,79.2,73.3,30.30,SE,135,2.0,6.0,82,0.00,,,0.00,WUHU216HW,2013-07-15 14:06:00,
2013-07-15 10:11:00,80.5,74.5,30.30,East,90,5.4,6.0,82,0.00,,,0.00,WUHU216HW,2013-07-15 14:11:00,
2013-07-15 10:16:00,81.0,74.7,30.30,ENE,68,2.5,5.4,81,0.00,,,0.00,WUHU216HW,2013-07-15 14:16:00,
2013-07-15 10:21:00,81.7,74.6,30.31,NE,45,1.1,5.4,79,0.00,,,0.00,WUHU216HW,2013-07-15 14:21:00,
2013-07-15 10:26:00,81.5,74.4,30.31,ESE,113,1.8,3.6,79,0.00,,,0.00,WUHU216HW,2013-07-15 14:26:00,
2013-07-15 10:31:00,81.5,74.4,30.31,NNE,23,1.6,3.6,79,0.00,,,0.00,WUHU216HW,2013-07-15 14:31:00,
2013-07-15 10:36:00,82.1,75.0,30.31,East,90,2.7,4.0,79,0.00,,,0.00,WUHU216HW,2013-07-15 14:36:00,
2013-07-15 10:41:00,82.3,74.8,30.31,SSE,158,1.1,4.0,78,0.00,,,0.00,WUHU216HW,2013-07-15 14:41:00,
2013-07-15 10:55:00,83.5,75.5,30.31,SE,135,0.4,2.9,77,0.00,,,0.00,WUHU216HW,2013-07-15 14:55:00,
2013-07-15 11:01:00,83.7,74.9,30.31,ENE,68,2.5,3.8,75,0.00,,,0.00,WUHU216HW,2013-07-15 15:01:00,
2013-07-15 11:06:00,84.2,75.8,30.31,South,180,0.9,3.8,76,0.00,,,0.00,WUHU216HW,2013-07-15 15:06:00,
2013-07-15 11:11:00,84.8,74.3,30.31,ENE,68,2.7,4.9,71,0.00,,,0.00,WUHU216HW,2013-07-15 15:11:00,
2013-07-15 11:16:00,84.4,74.0,30.31,ENE,68,1.8,5.1,71,0.00,,,0.00,WUHU216HW,2013-07-15 15:16:00,
2013-07-15 11:21:00,83.9,74.7,30.31,ENE,68,2.5,5.1,74,0.00,,,0.00,WUHU216HW,2013-07-15 15:21:00,
2013-07-15 11:26:00,83.9,74.7,30.31,ESE,113,1.1,4.3,74,0.00,,,0.00,WUHU216HW,2013-07-15 15:26:00,
2013-07-15 11:31:00,83.3,74.2,30.31,ESE,113,2.9,4.5,74,0.00,,,0.00,WUHU216HW,2013-07-15 15:31:00,
2013-07-15 11:36:00,82.8,74.4,30.31,SE,135,0.2,4.5,76,0.00,,,0.00,WUHU216HW,2013-07-15 15:36:00,
2013-07-15 11:42:00,83.2,75.6,30.31,SE,135,0.0,4.0,78,0.00,,,0.00,WUHU216HW,2013-07-15 15:42:00,
2013-07-15 11:47:00,83.0,75.1,30.31,North,0,1.1,2.5,77,0.00,,,0.00,WUHU216HW,2013-07-15 15:47:00,
2013-07-15 11:52:00,83.0,75.4,30.31,SE,135,0.7,3.1,78,0.00,,,0.00,WUHU216HW,2013-07-15 15:52:00,
2013-07-15 11:57:00,83.2,74.8,30.31,East,90,1.6,3.1,76,0.00,,,0.00,WUHU216HW,2013-07-15 15:57:00,
2013-07-15 12:02:00,83.9,76.7,30.30,SW,225,0.9,2.2,79,0.00,,,0.00,WUHU216HW,2013-07-15 16:02:00,
2013-07-15 12:07:00,85.0,76.5,30.30,East,90,3.8,3.8,76,0.00,,,0.00,WUHU216HW,2013-07-15 16:07:00,
2013-07-15 12:12:00,84.6,74.6,30.30,SSE,158,0.7,4.7,72,0.00,,,0.00,WUHU216HW,2013-07-15 16:12:00,
2013-07-15 12:17:00,85.0,76.5,30.31,SSE,158,0.9,4.7,76,0.00,,,0.00,WUHU216HW,2013-07-15 16:17:00,
2013-07-15 12:22:00,86.2,74.4,30.30,East,90,3.6,3.6,68,0.00,,,0.00,WUHU216HW,2013-07-15 16:22:00,
2013-07-15 12:27:00,85.9,74.6,30.30,SSE,158,1.1,3.6,69,0.00,,,0.00,WUHU216HW,2013-07-15 16:27:00,
2013-07-15 12:32:00,86.8,76.3,30.30,NNE,23,1.1,3.4,71,0.00,,,0.00,WUHU216HW,2013-07-15 16:32:00,
2013-07-15 12:37:00,87.7,76.2,30.30,South,180,0.7,3.8,69,0.00,,,0.00,WUHU216HW,2013-07-15 16:37:00,
2013-07-15 12:42:00,88.0,75.3,30.30,ESE,113,1.8,4.9,66,0.00,,,0.00,WUHU216HW,2013-07-15 16:42:00,
2013-07-15 12:47:00,88.2,75.9,30.30,NE,45,2.7,4.9,67,0.00,,,0.00,WUHU216HW,2013-07-15 16:47:00,
2013-07-15 12:52:00,88.7,74.5,30.29,East,90,0.7,4.7,63,0.01,,,0.01,WUHU216HW,2013-07-15 16:52:00,
2013-07-15 12:58:00,88.9,76.6,30.29,SSE,158,1.1,4.5,67,0.01,,,0.01,WUHU216HW,2013-07-15 16:58:00,
2013-07-15 13:03:00,88.2,74.1,30.30,ESE,113,4.0,6.9,63,0.01,,,0.01,WUHU216HW,2013-07-15 17:03:00,
2013-07-15 13:09:00,88.2,74.5,30.29,East,90,1.8,6.9,64,0.01,,,0.01,WUHU216HW,2013-07-15 17:09:00,
2013-07-15 13:14:00,88.4,74.3,30.29,ENE,68,3.8,5.4,63,0.01,,,0.01,WUHU216HW,2013-07-15 17:14:00,
2013-07-15 13:19:00,87.8,74.2,30.29,ENE,68,0.9,8.5,64,0.01,,,0.01,WUHU216HW,2013-07-15 17:19:00,
2013-07-15 13:24:00,88.0,75.3,30.28,NNE,23,0.4,8.5,66,0.01,,,0.01,WUHU216HW,2013-07-15 17:24:00,
2013-07-15 13:29:00,88.4,74.3,30.28,ESE,113,1.6,4.7,63,0.01,,,0.01,WUHU216HW,2013-07-15 17:29:00,
2013-07-15 13:35:00,87.7,72.6,30.28,NNE,23,3.4,5.8,61,0.01,,,0.01,WUHU216HW,2013-07-15 17:35:00,
2013-07-15 13:40:00,88.2,75.0,30.28,ESE,113,2.7,5.8,65,0.01,,,0.01,WUHU216HW,2013-07-15 17:40:00,
2013-07-15 13:45:00,89.3,74.2,30.27,NNE,23,2.2,4.5,61,0.02,,,0.02,WUHU216HW,2013-07-15 17:45:00,
2013-07-15 13:50:00,90.0,75.2,30.28,ESE,113,2.0,4.5,62,0.02,,,0.02,WUHU216HW,2013-07-15 17:50:00,
2013-07-15 13:55:00,90.2,74.4,30.28,ESE,113,4.0,5.8,60,0.01,,,0.02,WUHU216HW,2013-07-15 17:55:00,
2013-07-15 14:00:00,88.9,75.2,30.28,ESE,113,2.7,5.8,64,0.01,,,0.02,WUHU216HW,2013-07-15 18:00:00,
2013-07-15 14:05:00,89.6,75.4,30.28,SSE,158,2.2,5.4,63,0.01,,,0.02,WUHU216HW,2013-07-15 18:05:00,
2013-07-15 14:10:00,89.8,74.2,30.27,SE,135,1.1,4.5,60,0.01,,,0.02,WUHU216HW,2013-07-15 18:10:00,
2013-07-15 14:15:00,88.7,74.5,30.27,SE,135,1.8,4.9,63,0.01,,,0.02,WUHU216HW,2013-07-15 18:15:00,
2013-07-15 14:20:00,88.2,74.5,30.27,ESE,113,0.9,6.7,64,0.01,,,0.02,WUHU216HW,2013-07-15 18:20:00,
2013-07-15 14:25:00,87.8,73.3,30.27,SW,225,1.8,6.7,62,0.01,,,0.02,WUHU216HW,2013-07-15 18:25:00,
2013-07-15 14:30:00,88.0,74.4,30.27,NE,45,2.5,4.3,64,0.01,,,0.02,WUHU216HW,2013-07-15 18:30:00,
2013-07-15 14:35:00,87.7,73.5,30.27,ESE,113,4.0,4.0,63,0.01,,,0.02,WUHU216HW,2013-07-15 18:35:00,
2013-07-15 14:41:00,87.3,74.1,30.27,NE,45,0.9,6.5,65,0.01,,,0.02,WUHU216HW,2013-07-15 18:41:00,
2013-07-15 14:46:00,87.1,74.9,30.27,SSE,158,0.4,6.5,67,0.00,,,0.02,WUHU216HW,2013-07-15 18:46:00,
2013-07-15 14:51:00,86.9,74.7,30.27,SE,135,0.7,4.3,67,0.00,,,0.02,WUHU216HW,2013-07-15 18:51:00,
2013-07-15 14:56:00,86.6,74.4,30.27,NE,45,1.8,4.3,67,0.00,,,0.02,WUHU216HW,2013-07-15 18:56:00,
2013-07-15 15:01:00,86.2,74.4,30.26,ENE,68,1.6,3.1,68,0.00,,,0.02,WUHU216HW,2013-07-15 19:01:00,
2013-07-15 15:07:00,86.0,74.4,30.26,SE,135,0.7,4.3,68,0.00,,,0.02,WUHU216HW,2013-07-15 19:07:00,
2013-07-15 15:12:00,86.0,74.8,30.27,East,90,0.4,3.1,69,0.00,,,0.02,WUHU216HW,2013-07-15 19:12:00,
2013-07-15 15:17:00,86.2,75.0,30.27,ESE,113,0.4,1.8,69,0.00,,,0.02,WUHU216HW,2013-07-15 19:17:00,
2013-07-15 15:22:00,86.2,75.0,30.26,ESE,113,0.4,1.8,69,0.00,,,0.02,WUHU216HW,2013-07-15 19:22:00,
2013-07-15 15:27:00,86.2,75.4,30.26,SSE,158,0.4,1.1,70,0.00,,,0.02,WUHU216HW,2013-07-15 19:27:00,
2013-07-15 15:32:00,86.0,75.2,30.26,SW,225,1.1,1.1,70,0.00,,,0.02,WUHU216HW,2013-07-15 19:32:00,
2013-07-15 15:37:00,85.5,74.3,30.26,SSE,158,1.8,2.5,69,0.00,,,0.02,WUHU216HW,2013-07-15 19:37:00,
2013-07-15 15:42:00,85.0,74.2,30.26,SSE,158,1.3,2.5,70,0.00,,,0.02,WUHU216HW,2013-07-15 19:42:00,
2013-07-15 15:47:00,84.6,74.2,30.26,SE,135,0.4,5.1,71,0.00,,,0.02,WUHU216HW,2013-07-15 19:47:00,
2013-07-15 15:52:00,84.1,74.1,30.26,SSE,158,1.1,5.1,72,0.00,,,0.02,WUHU216HW,2013-07-15 19:52:00,
2013-07-15 15:57:00,83.9,73.9,30.26,SSE,158,1.1,4.3,72,0.00,,,0.02,WUHU216HW,2013-07-15 19:57:00,
2013-07-15 16:02:00,83.7,74.1,30.26,ENE,68,1.1,3.4,73,0.00,,,0.02,WUHU216HW,2013-07-15 20:02:00,
2013-07-15 16:07:00,83.5,73.9,30.26,SE,135,0.0,2.9,73,0.00,,,0.02,WUHU216HW,2013-07-15 20:07:00,
2013-07-15 16:12:00,83.5,73.9,30.26,ESE,113,0.4,2.9,73,0.00,,,0.02,WUHU216HW,2013-07-15 20:12:00,
2013-07-15 16:18:00,83.5,73.5,30.26,SSE,158,0.7,4.7,72,0.00,,,0.02,WUHU216HW,2013-07-15 20:18:00,
2013-07-15 16:23:00,83.2,72.8,30.27,ESE,113,1.8,4.7,71,0.00,,,0.02,WUHU216HW,2013-07-15 20:23:00,
2013-07-15 16:28:00,82.8,72.8,30.27,ESE,113,0.7,3.8,72,0.00,,,0.02,WUHU216HW,2013-07-15 20:28:00,
2013-07-15 16:34:00,82.6,72.3,30.27,North,0,3.6,6.7,71,0.00,,,0.02,WUHU216HW,2013-07-15 20:34:00,
2013-07-15 16:39:00,82.4,72.5,30.27,SE,135,0.4,6.7,72,0.00,,,0.02,WUHU216HW,2013-07-15 20:39:00,
2013-07-15 16:44:00,82.4,72.5,30.26,SSW,203,0.4,2.2,72,0.00,,,0.02,WUHU216HW,2013-07-15 20:44:00,
2013-07-15 16:49:00,82.3,72.3,30.26,SSE,158,0.7,1.1,72,0.00,,,0.02,WUHU216HW,2013-07-15 20:49:00,
2013-07-15 16:54:00,82.1,72.5,30.26,SE,135,1.1,1.8,73,0.00,,,0.02,WUHU216HW,2013-07-15 20:54:00,
2013-07-15 16:59:00,81.9,72.0,30.27,NNW,338,0.9,2.2,72,0.00,,,0.02,WUHU216HW,2013-07-15 20:59:00,
2013-07-15 17:05:00,81.7,71.8,30.28,North,0,0.4,2.2,72,0.00,,,0.02,WUHU216HW,2013-07-15 21:05:00,
2013-07-15 17:10:00,81.5,71.6,30.28,ENE,68,0.4,2.7,72,0.00,,,0.02,WUHU216HW,2013-07-15 21:10:00,
2013-07-15 17:15:00,81.4,71.5,30.28,North,0,0.0,2.7,72,0.00,,,0.02,WUHU216HW,2013-07-15 21:15:00,
2013-07-15 17:20:00,81.4,71.9,30.28,East,90,1.1,1.8,73,0.00,,,0.02,WUHU216HW,2013-07-15 21:20:00,
2013-07-15 17:25:00,81.4,72.3,30.27,East,90,0.0,1.8,74,0.00,,,0.02,WUHU216HW,2013-07-15 21:25:00,
2013-07-15 17:30:00,81.5,72.5,30.28,East,90,0.0,1.6,74,0.00,,,0.02,WUHU216HW,2013-07-15 21:30:00,
2013-07-15 17:35:00,81.5,72.5,30.27,SE,135,0.2,1.8,74,0.00,,,0.02,WUHU216HW,2013-07-15 21:35:00,
2013-07-15 17:40:00,81.5,72.5,30.27,ESE,113,0.2,1.8,74,0.00,,,0.02,WUHU216HW,2013-07-15 21:40:00,
2013-07-15 17:46:00,81.7,72.6,30.26,SE,135,0.9,2.5,74,0.00,,,0.02,WUHU216HW,2013-07-15 21:46:00,
2013-07-15 17:51:00,81.4,72.3,30.26,ENE,68,1.1,2.5,74,0.00,,,0.02,WUHU216HW,2013-07-15 21:51:00,
2013-07-15 17:56:00,81.4,72.3,30.25,East,90,0.7,3.1,74,0.00,,,0.02,WUHU216HW,2013-07-15 21:56:00,
2013-07-15 18:01:00,81.4,72.7,30.25,North,0,1.8,3.1,75,0.00,,,0.02,WUHU216HW,2013-07-15 22:01:00,
2013-07-15 18:06:00,81.2,72.6,30.26,NE,45,0.4,2.9,75,0.00,,,0.02,WUHU216HW,2013-07-15 22:06:00,
2013-07-15 18:11:00,81.2,72.6,30.26,East,90,1.8,2.5,75,0.00,,,0.02,WUHU216HW,2013-07-15 22:11:00,
2013-07-15 18:16:00,81.4,73.1,30.25,ENE,68,0.7,3.8,76,0.00,,,0.02,WUHU216HW,2013-07-15 22:16:00,
2013-07-15 18:21:00,81.4,73.1,30.25,NE,45,1.1,4.3,76,0.00,,,0.02,WUHU216HW,2013-07-15 22:21:00,
2013-07-15 18:27:00,81.4,73.1,30.25,NE,45,0.2,4.3,76,0.00,,,0.02,WUHU216HW,2013-07-15 22:27:00,
2013-07-15 18:32:00,81.4,72.7,30.26,SSE,158,3.4,3.4,75,0.00,,,0.02,WUHU216HW,2013-07-15 22:32:00,
2013-07-15 18:37:00,81.7,72.6,30.26,East,90,1.8,5.4,74,0.00,,,0.02,WUHU216HW,2013-07-15 22:37:00,
2013-07-15 18:42:00,81.5,72.8,30.27,ENE,68,0.7,5.4,75,0.00,,,0.02,WUHU216HW,2013-07-15 22:42:00,
2013-07-15 18:47:00,81.5,72.8,30.27,NE,45,1.6,3.1,75,0.00,,,0.02,WUHU216HW,2013-07-15 22:47:00,
2013-07-15 18:52:00,81.0,71.9,30.27,ESE,113,0.0,5.4,74,0.00,,,0.02,WUHU216HW,2013-07-15 22:52:00,
2013-07-15 18:57:00,81.0,72.4,30.27,ESE,113,1.8,5.4,75,0.00,,,0.02,WUHU216HW,2013-07-15 22:57:00,
2013-07-15 19:02:00,80.8,72.2,30.27,ESE,113,1.8,2.2,75,0.00,,,0.02,WUHU216HW,2013-07-15 23:02:00,
2013-07-15 19:07:00,80.6,72.0,30.27,ENE,68,0.7,2.2,75,0.00,,,0.02,WUHU216HW,2013-07-15 23:07:00,
2013-07-15 19:12:00,80.6,72.0,30.28,ENE,68,0.4,2.5,75,0.00,,,0.02,WUHU216HW,2013-07-15 23:12:00,
2013-07-15 19:17:00,80.3,72.0,30.27,ENE,68,0.4,2.5,76,0.00,,,0.02,WUHU216HW,2013-07-15 23:17:00,
2013-07-15 19:23:00,80.3,72.0,30.27,ENE,68,0.4,1.8,76,0.00,,,0.02,WUHU216HW,2013-07-15 23:23:00,
2013-07-15 19:27:00,80.1,72.3,30.27,East,90,0.9,1.6,77,0.00,,,0.02,WUHU216HW,2013-07-15 23:27:00,
2013-07-15 19:33:00,79.9,72.5,30.27,East,90,1.1,2.5,78,0.00,,,0.02,WUHU216HW,2013-07-15 23:33:00,
2013-07-15 19:38:00,79.9,72.5,30.27,NNW,338,1.8,2.9,78,0.00,,,0.02,WUHU216HW,2013-07-15 23:38:00,
2013-07-15 19:43:00,79.6,72.1,30.26,NE,45,1.1,3.4,78,0.00,,,0.02,WUHU216HW,2013-07-15 23:43:00,
2013-07-15 19:48:00,79.6,72.1,30.26,NE,45,0.9,3.4,78,0.00,,,0.02,WUHU216HW,2013-07-15 23:48:00,
2013-07-15 19:53:00,79.4,72.4,30.26,NE,45,1.6,2.5,79,0.00,,,0.02,WUHU216HW,2013-07-15 23:53:00,
2013-07-15 19:58:00,79.2,72.5,30.26,East,90,4.9,4.9,80,0.00,,,0.02,WUHU216HW,2013-07-15 23:58:00,
2013-07-15 20:03:00,78.8,72.2,30.26,ESE,113,0.4,4.9,80,0.00,,,0.02,WUHU216HW,2013-07-16 00:03:00,
2013-07-15 20:08:00,78.7,72.0,30.26,NNE,23,1.8,4.9,80,0.00,,,0.02,WUHU216HW,2013-07-16 00:08:00,
2013-07-15 20:13:00,78.5,72.2,30.26,East,90,3.6,3.6,81,0.00,,,0.02,WUHU216HW,2013-07-16 00:13:00,
2013-07-15 20:18:00,78.5,72.2,30.26,ESE,113,0.4,3.6,81,0.00,,,0.02,WUHU216HW,2013-07-16 00:18:00,
2013-07-15 20:24:00,78.1,71.8,30.26,ENE,68,0.2,3.6,81,0.00,,,0.02,WUHU216HW,2013-07-16 00:24:00,
2013-07-15 20:29:00,78.1,71.8,30.26,NNW,338,0.7,3.8,81,0.00,,,0.02,WUHU216HW,2013-07-16 00:29:00,
2013-07-15 20:34:00,77.9,72.0,30.26,ENE,68,1.1,3.8,82,0.00,,,0.02,WUHU216HW,2013-07-16 00:34:00,
2013-07-15 20:39:00,77.8,71.8,30.26,ESE,113,1.1,2.5,82,0.00,,,0.02,WUHU216HW,2013-07-16 00:39:00,
2013-07-15 20:44:00,77.6,71.6,30.26,WNW,293,0.2,2.0,82,0.00,,,0.02,WUHU216HW,2013-07-16 00:44:00,
2013-07-15 20:49:00,77.4,71.8,30.26,NE,45,0.0,2.0,83,0.00,,,0.02,WUHU216HW,2013-07-16 00:49:00,
2013-07-15 20:54:00,77.2,71.3,30.26,NE,45,0.2,2.0,82,0.00,,,0.02,WUHU216HW,2013-07-16 00:54:00,
2013-07-15 20:59:00,77.0,71.1,30.27,ENE,68,1.1,2.0,82,0.00,,,0.02,WUHU216HW,2013-07-16 00:59:00,
2013-07-15 21:04:00,76.9,71.3,30.27,ENE,68,0.2,1.8,83,0.00,,,0.02,WUHU216HW,2013-07-16 01:04:00,
2013-07-15 21:10:00,76.7,71.1,30.27,NE,45,0.4,1.8,83,0.00,,,0.02,WUHU216HW,2013-07-16 01:10:00,
2013-07-15 21:15:00,76.7,71.1,30.27,East,90,0.2,3.1,83,0.00,,,0.02,WUHU216HW,2013-07-16 01:15:00,
2013-07-15 21:20:00,76.5,71.3,30.27,East,90,0.0,3.1,84,0.00,,,0.02,WUHU216HW,2013-07-16 01:20:00,
2013-07-15 21:25:00,76.5,71.3,30.28,ENE,68,0.7,1.8,84,0.00,,,0.02,WUHU216HW,2013-07-16 01:25:00,
2013-07-15 21:30:00,76.3,71.5,30.28,North,0,0.2,1.8,85,0.00,,,0.02,WUHU216HW,2013-07-16 01:30:00,
2013-07-15 21:35:00,76.3,71.1,30.28,North,0,0.0,1.6,84,0.00,,,0.02,WUHU216HW,2013-07-16 01:35:00,
2013-07-15 21:40:00,76.1,71.0,30.28,ENE,68,0.0,1.1,84,0.00,,,0.02,WUHU216HW,2013-07-16 01:40:00,
2013-07-15 21:46:00,76.1,71.3,30.29,ENE,68,0.9,1.3,85,0.00,,,0.02,WUHU216HW,2013-07-16 01:46:00,
2013-07-15 21:51:00,76.0,71.2,30.29,NNE,23,0.4,1.3,85,0.00,,,0.02,WUHU216HW,2013-07-16 01:51:00,
2013-07-15 21:56:00,76.0,71.2,30.29,NW,315,0.2,1.8,85,0.00,,,0.02,WUHU216HW,2013-07-16 01:56:00,
2013-07-15 22:01:00,75.8,71.0,30.29,NNE,23,0.7,1.8,85,0.00,,,0.02,WUHU216HW,2013-07-16 02:01:00,
2013-07-15 22:06:00,75.8,71.0,30.29,ENE,68,0.4,2.0,85,0.00,,,0.02,WUHU216HW,2013-07-16 02:06:00,
2013-07-15 22:11:00,75.6,70.8,30.29,ESE,113,0.0,2.2,85,0.00,,,0.02,WUHU216HW,2013-07-16 02:11:00,
2013-07-15 22:16:00,75.6,70.8,30.29,East,90,0.0,2.2,85,0.00,,,0.02,WUHU216HW,2013-07-16 02:16:00,
2013-07-15 22:21:00,75.4,70.7,30.29,East,90,0.0,1.3,85,0.00,,,0.02,WUHU216HW,2013-07-16 02:21:00,
2013-07-15 22:27:00,75.4,71.0,30.30,East,90,0.4,0.9,86,0.00,,,0.02,WUHU216HW,2013-07-16 02:27:00,
2013-07-15 22:32:00,75.2,70.8,30.29,NE,45,0.0,0.9,86,0.00,,,0.02,WUHU216HW,2013-07-16 02:32:00,
2013-07-15 22:37:00,75.1,70.7,30.30,NE,45,0.0,0.4,86,0.00,,,0.02,WUHU216HW,2013-07-16 02:37:00,
2013-07-15 22:43:00,74.9,70.8,30.29,NNE,23,0.0,0.9,87,0.00,,,0.02,WUHU216HW,2013-07-16 02:43:00,
2013-07-15 22:48:00,74.9,70.8,30.30,NNW,338,0.2,0.9,87,0.00,,,0.02,WUHU216HW,2013-07-16 02:48:00,
2013-07-15 22:53:00,74.9,70.8,30.30,NE,45,0.2,0.9,87,0.00,,,0.02,WUHU216HW,2013-07-16 02:53:00,
2013-07-15 22:58:00,74.9,70.8,30.30,North,0,0.2,1.1,87,0.00,,,0.02,WUHU216HW,2013-07-16 02:58:00,
2013-07-15 23:03:00,74.7,70.7,30.30,ESE,113,0.4,1.3,87,0.00,,,0.02,WUHU216HW,2013-07-16 03:03:00,
2013-07-15 23:08:00,74.7,70.7,30.30,NE,45,0.4,1.3,87,0.00,,,0.02,WUHU216HW,2013-07-16 03:08:00,
2013-07-15 23:13:00,74.7,70.7,30.30,ENE,68,0.0,2.2,87,0.00,,,0.02,WUHU216HW,2013-07-16 03:13:00,
2013-07-15 23:18:00,74.7,70.7,30.30,ENE,68,0.9,2.2,87,0.00,,,0.02,WUHU216HW,2013-07-16 03:18:00,
2013-07-15 23:23:00,74.5,70.5,30.30,ENE,68,0.0,1.6,87,0.00,,,0.02,WUHU216HW,2013-07-16 03:23:00,
2013-07-15 23:29:00,74.5,70.5,30.30,North,0,0.0,1.1,87,0.00,,,0.02,WUHU216HW,2013-07-16 03:29:00,
2013-07-15 23:34:00,74.5,70.5,30.30,East,90,0.4,1.3,87,0.00,,,0.02,WUHU216HW,2013-07-16 03:34:00,
2013-07-15 23:39:00,74.5,70.5,30.30,NNE,23,0.0,1.3,87,0.00,,,0.02,WUHU216HW,2013-07-16 03:39:00,
2013-07-15 23:44:00,74.3,70.3,30.31,North,0,1.8,1.8,87,0.00,,,0.02,WUHU216HW,2013-07-16 03:44:00,
2013-07-15 23:49:00,74.3,70.3,30.31,NE,45,0.0,1.8,87,0.00,,,0.02,WUHU216HW,2013-07-16 03:49:00,
2013-07-15 23:54:00,74.3,70.3,30.31,NNW,338,0.0,1.1,87,0.00,,,0.02,WUHU216HW,2013-07-16 03:54:00,
2013-07-15 23:59:00,74.2,70.1,30.31,North,0,0.4,0.9,87,0.00,,,0.02,WUHU216HW,2013-07-16 03:59:00,